This demonstration page uses our WeatherBlox Daily Observations layout. Learn more.

Left ArrowRight Arrow

39.08367, -84.50855

Hourly Observations for December 21, 2017

Temp ( °F °C ) Dew Point ( °F °C ) Humidity (%) Winds ( mph kmh ) Pressure ( in mb ) Visibility ( mi km ) Precip ( " mm )
12:53 am 00:53 Clear 28 -2.2 22 -5.6 78 78 N N/A 30.09 1019 10 16 N/A
1:53 am 01:53 Clear 27 -2.8 23 -5 85 85 N N/A 30.08 1019 10 16 N/A
2:53 am 02:53 Clear 26 -3.3 23 -5 88 88 N N/A 30.09 1019 10 16 N/A
3:53 am 03:53 Clear 25 -3.9 23 -5 92 92 N N/A 30.09 1019 10 16 N/A
4:53 am 04:53 Clear 24 -4.4 21 -6.1 88 88 N N/A 30.09 1019 10 16 N/A
5:53 am 05:53 Clear 24 -4.4 22 -5.6 91 91 N N/A 30.09 1019 10 16 N/A
6:53 am 06:53 Clear 24 -4.4 21 -6.1 88 88 N N/A 30.11 1020 10 16 N/A
7:53 am 07:53 Clear 23 -5 20 -6.7 88 88 N N/A 30.12 1020 10 16 N/A
8:53 am 08:53 Sunny 29 -1.7 25 -3.9 85 85 NNE 6 9 30.13 1020 10 16 N/A
9:53 am 09:53 Sunny 35 1.7 25 -3.9 67 67 NNE 6 9 30.12 1020 10 16 N/A
10:53 am 10:53 Sunny 40 4.4 26 -3.3 58 58 N N/A 30.11 1020 10 16 N/A
11:53 am 11:53 Sunny 48 8.9 26 -3.3 42 42 N 6 9 30.07 1018 10 16 N/A
12:53 pm 12:53 Sunny 50 10 25 -3.9 38 38 WNW 3 6 30.03 1017 10 16 N/A
1:53 pm 13:53 Sunny 54 12.2 23 -5 30 30 SE 9 15 30.01 1016 10 16 N/A
2:53 pm 14:53 Sunny 56 13.3 26 -3.3 32 32 SSE 6 9 29.98 1015 10 16 N/A
3:53 pm 15:53 Sunny 55 12.8 30 -1.1 38 38 S 9 15 29.99 1016 10 16 N/A
4:53 pm 16:53 Sunny 54 12.2 31 -0.6 42 42 N N/A 29.98 1015 10 16 N/A
5:53 pm 17:53 Clear 47 8.3 31 -0.6 54 54 N N/A 29.99 1016 10 16 N/A
6:53 pm 18:53 Clear 41 5 32 undefined 70 70 N N/A 29.98 1015 10 16 N/A
7:53 pm 19:53 Mostly Cloudy 40 4.4 33 0.6 77 77 SSW 3 6 29.99 1016 10 16 N/A
8:53 pm 20:53 Partly Cloudy 41 5 32 undefined 70 70 N N/A 29.97 1015 10 16 N/A
9:23 pm 21:23 Mostly Cloudy 38 3.3 33 0.6 83 83 N N/A 29.97 1015 10 16 N/A
9:53 pm 21:53 Cloudy 41 5 35 1.7 79 79 N N/A 29.97 1015 10 16 N/A
10:53 pm 22:53 Cloudy 42 5.6 35 1.7 76 76 N N/A 29.96 1014 10 16 N/A
11:15 pm 23:15 Cloudy 43 6.1 36 2.2 76 76 W 3 6 29.94 1014 10 16 N/A
11:53 pm 23:53 Cloudy 44 6.7 39 3.9 83 83 WSW 3 6 29.94 1014 10 16 N/A

Powered by AerisWeather